Wind_Speed
8 9 9 7 6 7 8 9 10 10 10 10 9 10 10 10 10 8 7 6 7 9 10 11 12 14 19 21 22 20 17 16 17 18 19 20 21 21 21 20 18 15
5 5 5 5 6 7 8 9 10 11 12 13 14 14 13 12 11 9 7 5 6 9 11 13 14 13 14 18 21 20 16 15 16 17 19 21 21 22 22 22 20 17
5 8 10 10 10 9 9 9 10 10 11 13 13 13 13 12 12 11 8 7 7 9 10 13 15 14 11 13 18 20 17 15 14 15 17 19 21 22 22 22 21 18
9 12 13 14 14 12 11 10 11 12 12 13 12 12 12 12 11 10 9 9 9 10 10 10 12 12 10 9 15 18 17 14 13 13 14 16 19 21 21 21 21 20
17 18 18 18 17 16 15 13 12 12 12 13 12 12 12 12 10 9 8 8 9 10 10 10 10 11 10 9 13 17 16 15 14 14 15 16 17 19 20 20 21 21
22 22 22 21 21 20 19 18 16 13 12 12 11 11 12 12 10 8 7 8 10 10 9 9 10 12 13 12 13 15 15 15 16 17 18 19 19 20 20 20 22 23
22 23 23 23 23 22 21 20 19 16 14 13 12 11 11 11 11 10 9 9 10 11 9 9 10 11 13 15 14 14 12 13 15 17 20 20 20 21 22 22 23 24
20 21 22 23 23 23 22 21 20 19 17 16 14 13 12 12 12 11 10 10 10 11 10 9 10 11 12 15 16 15 13 12 14 17 20 21 20 21 22 23 24 24
18 19 20 22 23 23 23 22 20 19 18 17 15 15 14 14 13 11 10 10 10 11 10 10 10 10 11 13 16 17 15 13 13 16 19 20 19 18 19 20 21 23
16 17 18 21 22 23 23 22 21 19 18 17 17 16 16 16 15 12 10 9 10 10 10 10 10 10 11 13 14 16 16 14 13 14 16 18 19 20 20 20 19 20
16 15 17 19 20 21 22 22 22 20 18 17 17 18 18 18 18 17 14 10 9 9 9 10 11 12 13 13 14 15 15 15 15 15 15 16 19 20 20 19 19 21
15 15 16 18 19 20 20 20 20 20 19 18 18 18 19 19 20 19 18 15 12 10 10 10 11 13 14 14 15 15 15 15 16 17 17 17 18 19 18 18 18 20
14 15 17 19 20 20 20 19 19 18 18 18 18 18 19 20 21 20 19 18 17 14 12 11 11 12 14 15 15 15 15 15 16 17 18 18 19 19 19 18 18 19
14 15 17 19 20 21 21 21 20 19 18 18 18 19 19 21 22 21 19 19 19 17 16 14 12 12 13 14 16 16 16 16 16 16 17 19 20 21 20 19 19 19
15 15 15 17 19 20 21 21 22 21 21 20 19 19 19 21 22 22 20 19 17 17 17 15 14 14 14 14 15 17 17 17 16 16 16 17 19 20 21 21 20 20
16 15 15 15 17 19 20 21 22 22 22 22 21 20 20 21 22 22 21 19 17 16 16 16 15 14 14 14 14 15 17 18 18 17 17 17 18 19 21 21 21 21
15 16 16 16 16 17 19 20 21 22 22 22 22 21 21 21 22 23 22 21 19 18 16 15 14 13 13 14 14 14 16 17 18 18 18 18 19 20 21 22 22 22
14 15 16 17 17 18 18 19 20 21 22 22 23 23 23 22 22 23 23 22 21 20 19 16 14 14 15 16 15 14 14 16 17 18 19 19 20 21 21 21 22 22
14 14 16 17 18 18 18 18 19 20 21 22 23 23 24 25 24 24 24 23 22 21 21 20 18 17 17 17 16 15 15 15 17 18 18 19 20 21 22 22 22 22
14 15 16 18 19 19 19 19 19 20 21 21 22 23 24 26 27 26 25 24 23 22 21 21 20 19 18 17 17 17 15 16 17 18 18 19 20 21 22 23 23 23
15 16 17 19 19 20 20 19 19 20 20 20 21 22 24 25 27 28 27 25 24 23 22 21 20 18 18 17 16 16 16 15 15 17 18 19 19 20 21 22 23 23
16 17 17 18 19 19 20 20 20 20 20 20 20 22 24 25 26 27 28 27 25 24 23 22 21 18 17 17 16 16 16 15 14 15 16 17 18 19 19 20 21 22
18 18 17 17 18 18 19 20 20 20 20 19 20 22 24 26 27 28 28 28 26 24 23 23 22 19 17 17 16 15 16 16 15 15 15 16 17 18 18 19 20 20
19 18 18 18 18 18 19 19 20 20 20 20 21 22 23 25 27 28 29 28 26 24 23 23 23 20 17 16 16 14 14 15 15 14 15 16 16 17 17 18 19 20
20 19 19 18 19 19 19 19 19 20 21 21 21 21 23 24 25 26 29 29 28 26 25 23 22 21 17 16 16 14 13 14 14 13 14 15 16 16 17 18 20 20
21 21 21 20 20 19 19 18 18 20 21 22 21 21 22 24 25 25 27 30 30 28 26 24 22 21 18 17 16 15 14 14 14 14 14 14 15 15 16 18 19 19
Wind_Direction
284 277 268 274 304 327 335 334 326 319 317 317 312 309 308 303 298 295 293 296 299 296 289 279 270 266 266 266 266 261 251 240 234 232 234 233 231 229 227 222 220 226
304 303 304 321 335 334 335 334 327 323 322 321 316 314 315 313 310 309 307 305 302 297 294 289 281 273 268 266 268 266 256 244 235 233 236 237 236 234 231 225 221 226
349 357 2 5 4 356 349 341 333 327 322 320 320 320 322 323 319 313 305 295 282 273 272 277 278 276 275 274 275 274 267 254 240 233 238 241 239 237 235 230 227 230
16 14 14 15 14 11 5 357 347 338 333 333 333 330 329 329 325 313 299 289 284 281 279 280 281 279 280 278 271 266 261 255 246 236 238 243 241 240 240 236 234 237
34 31 28 25 23 22 19 13 2 348 343 341 335 330 331 329 321 307 297 297 296 293 292 296 297 289 279 264 253 250 246 240 238 234 232 236 239 240 243 243 243 244
39 36 34 32 30 28 25 22 15 3 352 345 335 330 330 327 321 309 304 313 313 304 294 291 292 289 283 273 258 252 245 232 230 232 230 231 233 236 241 246 248 248
36 34 34 32 31 30 28 25 22 15 8 1 350 339 332 326 320 314 313 319 320 314 301 285 281 281 279 277 270 262 252 237 235 238 236 234 232 231 235 241 245 246
30 28 27 26 25 25 24 23 20 16 13 7 358 348 339 330 321 312 309 314 317 314 308 299 296 288 276 274 276 272 262 248 243 242 242 243 239 233 233 235 238 242
25 22 19 17 16 17 17 16 15 13 10 6 360 352 347 341 332 316 303 305 310 310 309 307 305 296 281 275 277 276 269 258 250 243 241 243 240 235 235 236 237 240
17 18 16 12 10 10 9 8 7 6 5 2 358 355 352 349 343 333 317 304 302 306 308 309 306 297 286 281 281 280 275 266 259 249 242 241 239 240 242 240 237 240
6 9 12 11 7 4 3 2 1 360 358 355 352 351 353 353 350 347 341 325 306 300 300 302 305 299 291 287 286 285 280 272 266 259 252 247 248 251 251 246 241 243
3 1 3 3 0 357 354 354 356 355 352 350 346 344 346 351 353 352 348 340 328 315 299 289 289 289 289 288 285 282 279 272 265 262 260 255 253 256 256 250 246 248
5 357 351 350 349 349 346 345 349 351 350 346 341 338 339 344 350 351 349 344 340 335 326 309 293 284 281 282 281 278 277 274 268 264 263 261 260 260 256 249 245 246
2 354 346 343 343 346 346 343 343 345 346 344 339 334 333 337 343 347 347 345 343 341 339 332 317 299 286 280 279 278 278 278 276 272 268 266 265 265 262 256 251 249
355 354 352 349 347 348 348 345 342 342 342 341 338 332 328 330 336 341 344 344 342 339 337 333 324 312 299 287 282 281 279 277 277 277 275 272 268 267 265 263 260 256
349 352 355 356 354 350 347 345 343 342 341 341 339 334 328 326 329 335 341 343 340 336 333 327 321 316 305 293 287 282 278 277 276 274 274 273 272 269 267 265 262 259
346 347 350 354 355 351 347 345 343 341 341 340 339 336 332 328 327 330 336 341 341 338 332 324 318 316 314 309 303 291 281 277 276 274 272 270 269 268 267 265 263 260
345 343 346 349 351 350 347 344 340 338 338 338 337 337 334 329 328 328 331 336 339 337 335 329 321 320 323 322 317 309 297 286 279 275 272 269 268 267 265 266 265 263
347 344 345 346 348 348 346 343 339 335 334 334 333 333 331 329 327 327 328 331 333 334 332 330 327 328 329 327 323 320 314 302 291 282 275 271 268 265 264 264 265 264
350 347 346 345 345 346 343 341 338 333 330 330 329 328 328 327 325 325 326 328 329 330 328 326 326 327 328 326 324 323 320 313 303 294 286 280 273 268 265 264 264 264
351 348 346 344 344 343 341 341 339 335 331 329 327 325 325 324 322 321 322 324 326 327 325 323 322 323 324 325 325 324 323 318 309 302 295 288 281 274 269 266 265 264
350 348 346 345 344 344 342 341 340 336 334 331 327 324 323 322 320 319 319 321 324 326 324 322 321 321 321 321 325 326 323 317 311 305 299 293 287 282 277 273 269 265
351 349 349 347 346 345 343 341 339 337 335 334 329 324 322 321 319 318 317 318 321 323 323 322 321 322 322 320 322 325 322 317 312 305 298 294 291 288 285 282 278 272
350 351 351 350 348 346 343 340 338 336 334 333 330 324 321 320 319 317 314 314 318 320 321 320 318 321 323 319 318 322 320 316 313 305 296 292 290 288 284 280 279 278
347 350 351 351 348 346 342 337 334 333 333 333 332 328 324 322 321 319 315 313 314 317 318 318 317 319 323 320 318 321 319 316 314 307 297 292 290 289 284 278 276 277
344 347 348 347 346 344 341 337 333 333 333 334 333 331 329 326 325 323 319 314 313 316 317 318 318 320 322 321 320 321 320 318 314 305 297 293 292 291 288 282 277 274
Height
805 804 804 801 798 795 794 793 793 792 792 792 791 790 790 790 790 790 789 788 789 790 792 793 794 795 796 796 796 795 795 796 797 800 801 802 803 804 805 805 806 808
805 804 802 799 796 794 793 792 792 792 792 792 792 791 791 790 790 789 787 786 786 788 790 791 791 792 793 794 795 794 794 795 796 798 799 800 801 802 803 804 804 806
804 802 800 797 796 794 793 792 791 791 791 791 791 791 790 790 790 789 787 786 785 786 788 789 790 790 791 791 794 795 795 796 796 796 798 799 800 801 802 802 803 803
802 800 798 796 795 794 793 792 791 791 791 791 791 790 790 789 788 787 787 786 785 785 786 787 788 788 788 787 789 792 793 793 793 794 795 796 798 799 800 800 801 801
801 799 797 796 795 794 793 792 792 792 791 792 791 790 789 788 786 785 785 785 785 785 786 786 787 787 785 784 785 787 789 790 790 790 791 792 794 796 797 798 798 798
801 800 798 797 795 794 794 792 792 792 791 791 790 789 788 786 785 784 784 784 784 784 785 785 786 785 785 785 785 786 786 787 788 788 788 788 789 791 792 794 795 795
802 801 799 798 797 795 795 793 793 792 791 790 789 787 786 785 784 784 783 783 783 783 784 784 784 784 784 784 784 784 784 785 786 786 786 785 785 786 787 789 791 792
802 801 800 799 797 796 796 794 793 792 791 790 788 786 785 784 784 784 783 783 782 782 783 782 782 782 782 783 783 783 783 783 784 784 784 784 784 784 784 785 787 789
803 802 800 799 797 796 796 795 794 793 791 789 787 786 785 784 784 784 783 782 781 781 781 781 781 780 780 781 781 782 782 782 781 781 781 782 782 782 783 783 785 786
803 802 800 799 797 796 795 794 793 792 791 789 787 785 785 784 783 783 782 781 780 780 779 779 779 779 779 779 779 780 780 780 780 779 779 780 780 781 781 782 783 783
802 801 800 799 798 796 795 794 793 791 790 788 786 784 784 783 782 782 780 780 779 778 778 778 778 778 778 778 778 778 778 778 778 777 777 778 778 779 779 780 780 781
802 801 800 799 798 797 796 795 793 791 789 787 785 783 782 782 781 780 779 778 778 777 777 776 776 776 776 776 776 776 776 776 776 776 775 776 776 776 777 778 779 779
802 801 799 798 797 796 795 794 793 791 789 787 784 782 781 780 780 780 778 777 776 775 775 774 774 774 774 774 774 774 774 774 774 774 773 773 774 774 774 775 776 777
803 802 799 798 796 795 793 792 791 790 788 786 784 782 780 779 779 778 777 776 774 773 773 773 772 772 772 772 772 772 772 771 771 771 771 771 771 771 772 772 773 774
803 802 800 798 796 793 792 790 789 787 786 785 783 781 779 778 778 777 777 775 774 773 772 772 771 771 770 770 770 770 770 769 769 769 769 768 768 768 769 769 770 770
802 801 800 798 796 793 791 790 788 786 785 783 782 780 778 777 776 776 775 775 774 773 772 771 771 770 769 768 768 768 768 768 767 767 766 766 765 765 766 766 767 768
802 800 799 798 796 794 791 789 788 786 784 783 781 779 777 776 775 774 774 773 773 772 771 771 770 769 768 767 767 767 767 766 765 765 764 764 764 763 763 763 764 765
802 800 798 797 795 794 792 789 787 785 784 782 780 779 777 775 774 773 772 772 771 770 770 769 768 767 766 766 765 765 765 764 763 763 762 762 761 761 761 760 761 761
802 800 798 797 795 793 791 789 787 785 783 782 780 778 776 774 773 772 771 770 770 769 768 767 766 766 765 765 764 763 763 762 761 761 760 759 759 758 758 758 757 758
801 799 798 796 794 793 791 789 787 785 783 781 779 778 776 773 771 770 769 769 768 767 767 766 765 764 764 763 763 762 761 760 759 758 757 756 756 755 755 755 754 755
801 799 797 795 793 791 790 788 787 785 783 781 779 777 775 773 771 769 767 767 766 766 765 764 763 763 762 761 761 760 759 758 757 756 755 754 753 753 752 752 751 751
800 798 796 794 792 790 789 787 786 784 783 781 778 776 774 772 770 768 766 765 764 764 763 762 761 761 760 759 758 757 756 756 755 754 753 752 751 750 750 749 749 749
799 797 794 793 791 789 787 786 784 783 782 780 778 775 773 771 769 766 765 763 763 762 761 760 759 759 758 757 756 755 754 753 752 751 750 750 749 748 748 747 746 746
797 796 794 792 790 788 787 785 783 782 780 779 777 775 772 770 768 765 763 762 761 760 760 758 757 756 756 755 753 753 752 751 750 749 748 747 746 745 745 744 744 743
795 794 793 791 789 787 786 784 782 781 779 777 776 774 771 769 767 765 761 759 758 758 757 756 755 754 754 753 752 751 750 749 747 746 745 744 744 743 742 741 741 740
794 793 791 790 788 786 785 783 781 779 777 775 773 772 770 767 765 763 760 757 755 754 754 753 752 751 751 750 750 749 748 747 746 744 743 742 741 740 739 738 737 737